This is the latest recevied weather packets stored in our database for station/object KB9ZI. If no packets are shown the sender has not sent any weather packets the latest 10 day(s).
| Time | Temp. | Humidity | Pressure | Rain* | Wind** | Luminosity | Snow |
|---|---|---|---|---|---|---|---|
| 1777568265 | 8.89° C | 53% | 1017.9 hPa | 0 mm | - | - | - |
| 1777568006 | 9.44° C | 58% | 1017.9 hPa | 0 mm | - | - | - |
| 1777567888 | 8.89° C | 55% | 1017.9 hPa | 0 mm | - | - | - |
| 1777567767 | 9.44° C | 56% | 1018 hPa | 0 mm | - | - | - |
| 1777567717 | 9.44° C | 58% | 1018 hPa | 0 mm | - | - | - |
| 1777567701 | 9.44° C | 58% | 1017.9 hPa | 0 mm | - | - | - |
| 1777567468 | 8.33° C | 61% | 1017.9 hPa | 0 mm | - | - | - |
| 1777567269 | 8.33° C | 61% | 1018 hPa | 0 mm | - | - | - |
| 1777567213 | 8.33° C | 58% | 1017.9 hPa | 0 mm | - | - | - |
| 1777567096 | 8.33° C | 59% | 1018 hPa | 0 mm | - | - | - |
| 1777566906 | 8.33° C | 59% | 1017.8 hPa | 0 mm | - | - | - |
| 1777566758 | 8.33° C | 56% | 1017.8 hPa | 0 mm | - | - | - |
| 1777566635 | 8.33° C | 59% | 1017.9 hPa | 0 mm | - | - | - |
| 1777566515 | 8.33° C | 61% | 1017.8 hPa | 0 mm | - | - | - |
| 1777566468 | 7.78° C | 56% | 1017.9 hPa | 0 mm | - | - | - |
| 1777566260 | 7.78° C | 57% | 1017.9 hPa | 0 mm | - | - | - |
| 1777566240 | 8.33° C | 59% | 1017.8 hPa | 0 mm | - | - | - |
| 1777566003 | 8.33° C | 59% | 1017.9 hPa | 0 mm | - | - | - |
| 1777565877 | 7.78° C | 58% | 1017.9 hPa | 0 mm | - | - | - |
| 1777565754 | 7.78° C | 56% | 1017.9 hPa | 0 mm | - | - | - |
| 1777565640 | 8.89° C | 56% | 1017.8 hPa | 0 mm | - | - | - |
| 1777565573 | 8.89° C | 56% | 1017.8 hPa | 0 mm | - | - | - |
| 1777565370 | 8.89° C | 57% | 1017.9 hPa | 0 mm | - | - | - |
| 1777565252 | 8.33° C | 61% | 1017.9 hPa | 0 mm | - | - | - |
| 1777565196 | 8.33° C | 58% | 1017.9 hPa | 0 mm | - | - | - |
* Rain latest hour (hover to see other rain measurements)
** Current wind speed in m/s (hover to see current wind gust speed)